Location: Hope
(40.9110°N, 74.9680°W)
Time: 01:18:28
(UTC-04:00)

Envisat - Pass Details

Date: 29 January 2019
Orbit: 764 x 766 km, 98.1° (Epoch: 15 October)

Event Time Altitude Azimuth Distance (km) Brightness Sun altitude
Rises 19:06:52 0° 179° (S) 3,217 6.3 -21.6°
Reaches altitude 10° 19:09:13 10° 184° (S) 2,295 5.6 -22.0°
Maximum altitude 19:14:08 52° 260° (W) 948 3.8 -22.9°
Drops below altitude 10° 19:19:06 10° 337° (NNW) 2,310 5.7 -23.9°
Sets 19:21:29 0° 342° (NNW) 3,241 6.4 -24.3°
